[[{"header":{"parameterUnit":"m.s-1","parameterCategory":1,"la1":30.2991,"la2":30.254,"lo1":-89.0895,"lo2":-89.0444,"dy":0.0017,"dx":0.0017,"nx":28,"ny":28,"refTime":"2025-08-24T21:00:00:Z","depth":0,"parameterNumber":2,"parameterNumberName":"U-component_of_WINDS"},"data":[0,0,0,0,0,0,0,0,0,0,0,0,0,0,0,0,0,0,0,0,0,0,0,0,0,0,0,0,0,0,0,0,0,0,0,0,0,0,0,0,0,0,0,0,0,0,0,0,0,0,0,0,0,0,0,0,0,0,-0.398,-0.3981,0,-0.4094,-0.4095,-0.4096,-0.4214,-0.4216,-0.4217,-0.4219,-0.4332,-0.4334,-0.4335,0,0,0,0,0,0,0,0,0,0,0,0,0,-0.3862,-0.3863,-0.398,-0.3982,-0.3983,-0.4093,-0.4095,-0.4096,-0.4214,-0.4216,-0.4218,-0.422,-0.4332,-0.4333,-0.4335,0,0,0,0,0,0,0,0,0,0,0,0,0,-0.3938,-0.3864,-0.398,-0.4055,-0.4063,-0.4093,-0.4095,-0.4097,-0.4213,-0.4216,-0.4218,-0.4221,-0.4331,-0.4333,-0.4335,-0.43,0,0,-0.4342,-0.4343,0,0,0,0,0,0,0,0,-0.3933,-0.3942,-0.4042,-0.405,-0.4059,-0.4142,-0.4095,-0.4165,-0.4213,-0.4156,-0.4219,-0.4222,-0.4267,-0.4274,-0.429,-0.4305,-0.431,-0.4342,-0.4344,-0.4345,-0.4345,0,0,0,0,0,0,0,-0.3928,-0.3938,-0.4025,-0.4044,-0.4054,-0.4082,-0.4095,-0.4109,-0.4196,-0.4161,-0.417,-0.4182,-0.4272,-0.4288,-0.4294,-0.4312,-0.4342,-0.4344,-0.4346,-0.4347,-0.4301,-0.4299,0,0,0,0,0,0,-0.3912,-0.3933,-0.4021,-0.4028,-0.4001,-0.4082,-0.4097,-0.4113,-0.4196,-0.4212,-0.418,-0.4187,-0.4283,-0.4291,-0.4298,-0.426,-0.4345,-0.4347,-0.4348,-0.4304,-0.4301,-0.4298,0,0,0,0,0,0,-0.3909,-0.3919,-0.4017,-0.3983,-0.3998,-0.4081,-0.4098,-0.4114,-0.413,-0.421,-0.4226,-0.418,-0.4285,-0.4295,-0.4298,-0.4266,-0.4348,-0.435,-0.4307,-0.4303,-0.4299,-0.4185,0,0,0,0,0,0,-0.3905,-0.3917,-0.3905,-0.3982,-0.3999,-0.4016,-0.4096,-0.4114,-0.4134,-0.4145,-0.4215,-0.4229,-0.4288,-0.4294,-0.43,-0.427,-0.4352,-0.431,-0.4305,-0.43,-0.4192,-0.4178,-0.4165,0,0,0,0,0,-0.39,-0.3868,-0.3904,-0.3914,-0.3986,-0.4014,-0.4023,-0.4092,-0.4131,-0.4119,-0.417,-0.4227,-0.4269,-0.4294,-0.4302,-0.4272,-0.4312,-0.4306,-0.4301,-0.4198,-0.418,-0.4166,0,0,0,0,0,0,-0.3785,-0.388,-0.392,-0.3912,-0.3954,-0.4033,-0.4021,-0.4072,-0.4103,-0.4111,-0.4195,-0.4209,-0.4202,-0.4238,-0.4264,-0.4241,-0.4298,-0.4294,-0.4217,-0.4201,-0.4188,-0.4179,-0.4353,0,0,0,0,0,-0.3759,-0.3774,-0.3856,-0.3841,-0.386,-0.3936,-0.3951,-0.4,-0.4046,-0.4064,-0.4116,-0.4158,-0.418,-0.4193,-0.4219,-0.4198,-0.4214,-0.4181,-0.4168,-0.4157,-0.4151,-0.4141,-0.4126,-0.4279,-0.4279,-0.4279,0,0,-0.3704,-0.3758,-0.3763,-0.3819,-0.3857,-0.3869,-0.395,-0.3961,-0.397,-0.4066,-0.4072,-0.4111,-0.4163,-0.4153,-0.4152,-0.4183,-0.4113,-0.415,-0.414,-0.4141,-0.4133,-0.4118,-0.4105,-0.4275,-0.4276,-0.4276,0,0,-0.3611,-0.3654,-0.3646,-0.3682,-0.3739,-0.379,-0.3787,-0.3859,-0.3889,-0.3896,-0.3967,-0.398,-0.4017,-0.4051,-0.4073,-0.3991,-0.4043,-0.3997,-0.3926,-0.3915,-0.3903,-0.3893,-0.3861,-0.3848,-0.3991,-0.3991,-0.3991,0,-0.3536,-0.3559,-0.3634,-0.364,-0.3661,-0.3749,-0.374,-0.3771,-0.3833,-0.3845,-0.3879,-0.3927,-0.3969,-0.3967,-0.3946,-0.3962,-0.396,-0.3988,-0.3899,-0.3889,-0.3881,-0.3851,-0.3839,-0.3985,-0.3986,-0.3986,-0.3987,0,-0.3462,-0.3476,-0.3463,-0.352,-0.354,-0.3538,-0.3612,-0.3623,-0.3671,-0.3717,-0.3722,-0.3775,-0.3812,-0.3816,-0.3862,-0.382,-0.3837,-0.3884,-0.3943,-0.3858,-0.3832,-0.3822,-0.3976,-0.3978,-0.398,-0.3982,0,0,-0.3299,-0.3397,-0.3391,-0.3417,-0.3485,-0.3497,-0.3498,-0.3535,-0.3541,-0.3581,-0.3582,-0.3612,-0.3655,-0.368,-0.3731,-0.3721,-0.3649,-0.377,-0.3772,-0.3743,-0.3603,-0.3565,-0.3551,-0.3685,-0.3684,-0.3682,-0.3597,0,-0.3215,-0.3223,-0.3291,-0.3279,-0.3291,-0.3375,-0.3375,-0.3416,-0.346,-0.3476,-0.3525,-0.3543,-0.36,-0.3615,-0.361,-0.3659,-0.3622,-0.3667,-0.3685,-0.3685,-0.3667,-0.3537,-0.3498,-0.3415,-0.3588,-0.3586,-0.3585,0,-0.3119,-0.3152,-0.3141,-0.3208,-0.3216,-0.3216,-0.3253,-0.3269,-0.3316,-0.3349,-0.3375,-0.3433,-0.3437,-0.3494,-0.3499,-0.3528,-0.354,-0.3565,-0.3564,-0.3566,-0.3628,-0.3533,-0.3391,-0.3377,-0.357,-0.3571,-0.3572,0,-0.2997,-0.304,-0.3038,-0.3058,-0.3137,-0.3134,-0.3167,-0.3217,-0.3234,-0.3267,-0.3278,-0.331,-0.3327,-0.3351,-0.3414,-0.3451,-0.3411,-0.3475,-0.3436,-0.3434,-0.3422,-0.3421,-0.3276,-0.3434,-0.3434,-0.3434,-0.3434,0,-0.2896,-0.2885,-0.2984,-0.2983,-0.2972,-0.305,-0.3037,-0.3078,-0.3121,-0.3128,-0.3203,-0.3207,-0.3293,-0.3306,-0.3357,-0.3352,-0.336,-0.3384,-0.3397,-0.3376,-0.3372,-0.3383,-0.3389,-0.3431,-0.3432,-0.3432,-0.3433,0,-0.2757,-0.2824,-0.2827,-0.2901,-0.2919,-0.2908,-0.2971,-0.2972,-0.302,-0.3027,-0.3034,-0.3109,-0.3128,-0.3195,-0.3232,-0.3265,-0.3244,-0.3271,-0.3227,-0.3235,-0.3192,-0.3193,-0.3046,-0.303,-0.3199,-0.3198,-0.3196,0,-0.2687,-0.268,-0.2754,-0.2764,-0.2793,-0.2809,-0.2826,-0.2902,-0.2916,-0.2969,-0.2963,-0.2989,-0.3013,-0.3041,-0.3097,-0.3125,-0.3151,-0.3098,-0.3156,-0.3134,-0.3147,-0.3145,-0.3144,-0.3084,-0.3082,-0.308,-0.3079,0,-0.2554,-0.2587,-0.2609,-0.2642,-0.2661,-0.269,-0.2725,-0.2728,-0.2813,-0.2825,-0.2846,-0.2865,-0.2902,-0.2925,-0.2962,-0.2995,-0.3049,-0.3061,-0.3053,-0.3029,-0.3003,-0.3014,-0.319,-0.3063,-0.3065,-0.3066,-0.3067,-0.3067,-0.2446,-0.2443,-0.2493,-0.2515,-0.2549,-0.2578,-0.2582,-0.263,-0.265,-0.2685,-0.2729,-0.2744,-0.2791,-0.2846,-0.2874,-0.2886,-0.2916,-0.2905,-0.2902,-0.2897,-0.2886,-0.3003,-0.2893,-0.2894,-0.2894,-0.2895,-0.2895,0,-0.2314,-0.235,-0.237,-0.2415,-0.2431,-0.2483,-0.2523,-0.2533,-0.2545,-0.2585,-0.2607,-0.263,-0.2653,-0.2711,-0.274,-0.2738,-0.2763,-0.2742,-0.2742,-0.2748,-0.2859,-0.2861,-0.2721,-0.2721,-0.2721,-0.2721,-0.2721,-0.2721,-0.2247,-0.2244,-0.2282,-0.2296,-0.2333,-0.2348,-0.2366,-0.2393,-0.2424,-0.2447,-0.2466,-0.2505,-0.2551,-0.2583,-0.2606,-0.2622,-0.2628,-0.2598,-0.2622,-0.2724,-0.274,-0.2756,-0.2759,-0.2599,-0.2599,-0.251,-0.2509,-0.2508]},{"header":{"parameterUnit":"m.s-1","parameterCategory":1,"la1":30.2991,"la2":30.254,"lo1":-89.0895,"lo2":-89.0444,"dy":0.0017,"dx":0.0017,"nx":28,"ny":28,"refTime":"2025-08-24T21:00:00:Z","depth":0,"parameterNumber":3,"parameterNumberName":"V-component_of_WINDS"},"data":[0,0,0,0,0,0,0,0,0,0,0,0,0,0,0,0,0,0,0,0,0,0,0,0,0,0,0,0,0,0,0,0,0,0,0,0,0,0,0,0,0,0,0,0,0,0,0,0,0,0,0,0,0,0,0,0,0,0,-2.1763,-2.1763,0,-2.1764,-2.1764,-2.1764,-2.1739,-2.1738,-2.1738,-2.1737,-2.1738,-2.1738,-2.1739,0,0,0,0,0,0,0,0,0,0,0,0,0,-2.1739,-2.174,-2.1763,-2.1763,-2.1763,-2.1764,-2.1764,-2.1764,-2.1739,-2.1738,-2.1738,-2.1737,-2.1738,-2.1738,-2.1739,0,0,0,0,0,0,0,0,0,0,0,0,0,-2.1746,-2.174,-2.1763,-2.1751,-2.175,-2.1764,-2.1764,-2.1764,-2.1739,-2.1738,-2.1737,-2.1737,-2.1737,-2.1738,-2.1739,-2.1765,0,0,-2.1742,-2.1742,0,0,0,0,0,0,0,0,-2.1745,-2.1747,-2.1752,-2.1752,-2.175,-2.175,-2.1756,-2.1764,-2.174,-2.1743,-2.1737,-2.1736,-2.1743,-2.1743,-2.1745,-2.1765,-2.1765,-2.1742,-2.1743,-2.1743,-2.1743,0,0,0,0,0,0,0,-2.1745,-2.1746,-2.1763,-2.1753,-2.1751,-2.1745,-2.1745,-2.1757,-2.1749,-2.1743,-2.1741,-2.1742,-2.1742,-2.1745,-2.1745,-2.1765,-2.1742,-2.1743,-2.1744,-2.1744,-2.1804,-2.1805,0,0,0,0,0,0,-2.1746,-2.1746,-2.1763,-2.1763,-2.1745,-2.1746,-2.1746,-2.1751,-2.1748,-2.1747,-2.1742,-2.174,-2.1744,-2.1744,-2.1745,-2.1774,-2.1743,-2.1744,-2.1745,-2.1803,-2.1805,-2.1806,0,0,0,0,0,0,-2.1746,-2.1748,-2.1763,-2.1754,-2.1756,-2.1748,-2.1754,-2.1752,-2.1754,-2.1748,-2.1746,-2.1747,-2.1743,-2.1744,-2.176,-2.1774,-2.1744,-2.1745,-2.1802,-2.1804,-2.1805,-2.1833,0,0,0,0,0,0,-2.1745,-2.1748,-2.1758,-2.1755,-2.1756,-2.1778,-2.1755,-2.1753,-2.1756,-2.1754,-2.1752,-2.175,-2.1742,-2.1759,-2.1761,-2.1775,-2.1746,-2.1801,-2.1803,-2.1805,-2.1831,-2.1835,-2.1839,0,0,0,0,0,-2.1745,-2.1766,-2.1758,-2.176,-2.1768,-2.1779,-2.178,-2.177,-2.1757,-2.1767,-2.1763,-2.175,-2.1772,-2.1761,-2.1763,-2.1777,-2.18,-2.1802,-2.1805,-2.1829,-2.1835,-2.1839,0,0,0,0,0,0,-2.177,-2.1765,-2.1757,-2.1778,-2.1779,-2.1775,-2.1786,-2.1776,-2.1781,-2.1778,-2.1766,-2.1766,-2.1784,-2.1782,-2.1769,-2.1802,-2.1784,-2.1787,-2.1802,-2.1807,-2.1811,-2.1811,-2.1747,0,0,0,0,0,-2.1779,-2.1788,-2.1782,-2.1801,-2.1802,-2.1794,-2.1799,-2.1791,-2.1792,-2.1792,-2.1789,-2.179,-2.1797,-2.1802,-2.1808,-2.1831,-2.183,-2.1842,-2.1846,-2.185,-2.1852,-2.1863,-2.1868,-2.1814,-2.1814,-2.1813,0,0,-2.1795,-2.1793,-2.18,-2.1806,-2.1806,-2.1816,-2.1795,-2.1806,-2.1813,-2.1794,-2.1808,-2.1806,-2.1807,-2.1826,-2.1834,-2.1825,-2.1867,-2.1853,-2.1856,-2.1856,-2.1866,-2.1871,-2.1876,-2.1815,-2.1815,-2.1815,0,0,-2.183,-2.183,-2.1846,-2.1846,-2.1847,-2.1841,-2.1845,-2.1842,-2.184,-2.1855,-2.1841,-2.1849,-2.1862,-2.1862,-2.1864,-2.19,-2.1888,-2.1902,-2.1924,-2.1935,-2.194,-2.1943,-2.1955,-2.196,-2.1905,-2.1905,-2.1905,0,-2.1851,-2.1865,-2.1855,-2.1867,-2.187,-2.1853,-2.1868,-2.1869,-2.1872,-2.1874,-2.1864,-2.188,-2.1879,-2.1898,-2.1906,-2.1909,-2.1912,-2.1902,-2.194,-2.1944,-2.1947,-2.1958,-2.1963,-2.1907,-2.1907,-2.1906,-2.1906,0,-2.189,-2.19,-2.1912,-2.1915,-2.1919,-2.1933,-2.1925,-2.193,-2.1923,-2.1918,-2.1933,-2.1932,-2.1937,-2.1941,-2.1934,-2.1959,-2.1954,-2.1942,-2.1924,-2.1954,-2.1964,-2.1969,-2.1909,-2.1909,-2.1908,-2.1908,0,0,-2.1941,-2.1938,-2.1943,-2.1943,-2.1943,-2.195,-2.1963,-2.1968,-2.1973,-2.1976,-2.1986,-2.1997,-2.1986,-2.1989,-2.1981,-2.1991,-2.2019,-2.1978,-2.1978,-2.1985,-2.2046,-2.2054,-2.2059,-2.2011,-2.2012,-2.2013,-2.2045,0,-2.1974,-2.1996,-2.1987,-2.2009,-2.2018,-2.2002,-2.2014,-2.2014,-2.2011,-2.2017,-2.2013,-2.2021,-2.2007,-2.2008,-2.2017,-2.2013,-2.203,-2.2011,-2.202,-2.202,-2.2019,-2.2064,-2.2073,-2.2103,-2.2049,-2.205,-2.2051,0,-2.2016,-2.202,-2.2043,-2.2041,-2.2044,-2.2054,-2.2058,-2.2065,-2.2066,-2.2062,-2.2065,-2.2055,-2.2067,-2.205,-2.2066,-2.2053,-2.2057,-2.2055,-2.2056,-2.2056,-2.2037,-2.2064,-2.2113,-2.2117,-2.2057,-2.2057,-2.2056,0,-2.205,-2.2061,-2.2076,-2.2077,-2.2075,-2.2083,-2.2082,-2.2082,-2.2085,-2.2089,-2.2091,-2.2097,-2.2099,-2.2103,-2.2095,-2.2084,-2.2112,-2.2095,-2.2109,-2.211,-2.2115,-2.2115,-2.2164,-2.2119,-2.2119,-2.2119,-2.2119,0,-2.2087,-2.2102,-2.2091,-2.21,-2.2116,-2.2106,-2.2122,-2.2119,-2.2119,-2.2128,-2.2115,-2.2123,-2.2112,-2.2119,-2.2113,-2.2127,-2.2129,-2.2126,-2.2124,-2.2127,-2.2127,-2.2128,-2.2125,-2.212,-2.212,-2.212,-2.212,0,-2.2127,-2.2121,-2.2136,-2.2133,-2.2132,-2.2144,-2.2141,-2.2149,-2.2145,-2.2156,-2.2158,-2.2151,-2.2158,-2.2151,-2.2158,-2.2154,-2.2173,-2.2168,-2.2172,-2.2171,-2.2186,-2.2184,-2.2237,-2.2243,-2.2195,-2.2195,-2.2196,0,-2.2151,-2.2162,-2.216,-2.2164,-2.2165,-2.2172,-2.2176,-2.2167,-2.2171,-2.2173,-2.2181,-2.2187,-2.2192,-2.2205,-2.22,-2.2206,-2.2201,-2.2219,-2.2201,-2.2203,-2.22,-2.2199,-2.22,-2.2222,-2.2223,-2.2223,-2.2223,0,-2.2194,-2.219,-2.2196,-2.2201,-2.2206,-2.2209,-2.2212,-2.2216,-2.2207,-2.2212,-2.222,-2.2223,-2.2231,-2.2237,-2.2241,-2.2241,-2.223,-2.2229,-2.2233,-2.2235,-2.2237,-2.2235,-2.2181,-2.2228,-2.2227,-2.2227,-2.2227,-2.2227,-2.2226,-2.2234,-2.2234,-2.2241,-2.2242,-2.2245,-2.2252,-2.2249,-2.2255,-2.226,-2.2255,-2.2264,-2.2264,-2.2268,-2.2269,-2.2276,-2.2268,-2.2273,-2.2275,-2.2276,-2.2278,-2.2236,-2.2277,-2.2277,-2.2276,-2.2276,-2.2276,0,-2.2267,-2.2266,-2.2273,-2.2277,-2.2282,-2.2273,-2.2275,-2.228,-2.2288,-2.2289,-2.2294,-2.2303,-2.2309,-2.2305,-2.2311,-2.2317,-2.2312,-2.2319,-2.2317,-2.2317,-2.2285,-2.2281,-2.2322,-2.2322,-2.2322,-2.2322,-2.2322,-2.2322,-2.2289,-2.2303,-2.2299,-2.2314,-2.2313,-2.2322,-2.2324,-2.2326,-2.2327,-2.2337,-2.2342,-2.234,-2.2339,-2.2344,-2.2349,-2.2348,-2.235,-2.2358,-2.2355,-2.2324,-2.232,-2.2315,-2.2311,-2.2359,-2.2359,-2.2387,-2.2387,-2.2387]}]]